Gene Autry, OK

9:02 PM CST on February 11, 2016 (GMT -0600)
Ardmore Municipal

Weather History for KADM - December, 2012

Change the Weather History Date:

Tuesday, December 18, 2012

  Actual Average Record
Temperature  
Mean Temperature 48 °F -  
Max Temperature 68 °F 50 °F 69 °F (2013)
Min Temperature 28 °F 31 °F 17 °F (1996)
Degree Days  
Heating Degree Days 17    
Moisture  
Dew Point 32 °F    
Average Humidity 88    
Maximum Humidity 100    
Minimum Humidity 28    
Precipitation  
Precipitation 0.00 in - - ()
Sea Level Pressure  
Sea Level Pressure 29.79 in    
Wind  
Wind Speed 0 mph (West)    
Max Wind Speed 6 mph    
Max Gust Speed -    
Visibility 10 miles    
Events      
Averages and records for this station are not official NWS values.
T = Trace of Precipitation, MM = Missing Value Source: NWS Daily Summary

Daily Weather History Graph

Daily Weather History Graph

Search for Another Location

Airport or City:

Trip Planner

Search our weather history database for the weather conditions in past years. The results will help you decide how hot, cold, wet, or windy it might be!

Date:

Astronomy

Dec. 18, 2012 Rise Set
Actual Time 7:29 AM CST 5:21 PM CST
Civil Twilight 7:01 AM CST 5:48 PM CST
Nautical Twilight 6:29 AM CST 6:20 PM CST
Astronomical Twilight 5:59 AM CST 6:50 PM CST
Moon 11:23 AM CST (12/18) 11:32 PM CST (12/18)
Length of Visible Light 10h 47m
Length of Day
9h 51m
Waxing Crescent, 35% of the Moon is Illuminated
Dec 18
Waxing Crescent
Dec 19
First Quarter
Dec 28
Full
Jan 4
Last Quarter
Jan 11
New

Hourly Weather History & Observations

Time (CST) Temp. Dew Point Humidity Pressure Visibility Wind Dir Wind Speed Gust Speed Precip Events Conditions
12:15 AM 32.0 °F 32.0 °F 100% 29.82 in 7.0 mi Calm Calm - N/A   Unknown
12:35 AM 32.0 °F 32.0 °F 100% 29.82 in 10.0 mi Calm Calm - N/A   Unknown
12:55 AM 32.0 °F 30.2 °F 93% 29.81 in 10.0 mi Calm Calm - N/A   Unknown
1:15 AM 30.2 °F 30.2 °F 100% 29.81 in 10.0 mi Calm Calm - N/A   Unknown
1:35 AM 30.2 °F 30.2 °F 100% 29.80 in 10.0 mi Calm Calm - N/A   Unknown
1:55 AM 30.2 °F 30.2 °F 100% 29.80 in 10.0 mi Calm Calm - N/A   Unknown
2:15 AM 32.0 °F 32.0 °F 100% 29.80 in 10.0 mi Calm Calm - N/A   Unknown
2:35 AM 32.0 °F 30.2 °F 93% 29.80 in 10.0 mi Calm Calm - N/A   Unknown
2:55 AM 30.2 °F 30.2 °F 100% 29.79 in 10.0 mi Calm Calm - N/A   Unknown
3:15 AM 32.0 °F 32.0 °F 100% 29.78 in 10.0 mi Calm Calm - N/A   Unknown
3:35 AM 32.0 °F 32.0 °F 100% 29.78 in 10.0 mi Calm Calm - N/A   Unknown
3:55 AM 32.0 °F 30.2 °F 93% 29.77 in 10.0 mi Calm Calm - N/A   Unknown
4:15 AM 30.2 °F 30.2 °F 100% 29.77 in 10.0 mi Calm Calm - N/A   Unknown
4:35 AM 30.2 °F 30.2 °F 100% 29.77 in 7.0 mi Calm Calm - N/A   Unknown
5:15 AM 28.4 °F 28.4 °F 100% 29.76 in 10.0 mi Calm Calm - N/A   Unknown
5:35 AM 30.2 °F 30.2 °F 100% 29.76 in 10.0 mi Calm Calm - N/A   Unknown
8:55 AM 39.2 °F 35.6 °F 87% 29.80 in 10.0 mi Calm Calm - N/A   Clear
10:55 AM 57.2 °F 35.6 °F 44% 29.82 in 10.0 mi West 3.5 mph - N/A   Clear
11:55 AM 62.6 °F 35.6 °F 37% 29.80 in 10.0 mi WSW 5.8 mph - N/A   Clear
3:55 PM 68.0 °F 33.8 °F 28% 29.77 in 10.0 mi West 4.6 mph - N/A   Clear
10:35 PM 37.4 °F 32.0 °F 81% 29.77 in 10.0 mi Calm Calm - N/A   Unknown
10:55 PM 37.4 °F 32.0 °F 81% 29.76 in 10.0 mi Calm Calm - N/A   Unknown
11:15 PM 37.4 °F 32.0 °F 81% 29.76 in 10.0 mi Calm Calm - N/A   Unknown
11:35 PM 35.6 °F 32.0 °F 87% 29.77 in 10.0 mi Calm Calm - N/A   Unknown
11:55 PM 35.6 °F 33.8 °F 93% 29.76 in 10.0 mi Calm Calm - N/A   Unknown